DataTemp.
Ø
Temp.
Max
Temp.
Min
UmiditàPressionePioggiaVento
Ø
Vento
dir. Ø
Vento
Max
Indice UV
Max
17.09.2021 00:0018.4°C18.4°C18.4°C84.0%1013.0hPa0.0mm0.0km/hSSE0.0km/h0uvi
17.09.2021 00:0518.4°C18.4°C18.4°C84.0%1013.0hPa0.0mm0.0km/hSSE0.0km/h0uvi
17.09.2021 00:1018.4°C18.4°C18.3°C84.0%1013.0hPa0.0mm0.3km/hENE3.2km/h0uvi
17.09.2021 00:1518.4°C18.4°C18.3°C85.0%1013.0hPa0.0mm2.3km/hENE3.6km/h0uvi
17.09.2021 00:2018.3°C18.4°C18.3°C85.0%1013.0hPa0.0mm1.5km/hENE2.5km/h0uvi
17.09.2021 00:2518.3°C18.3°C18.3°C85.0%1013.0hPa0.0mm0.0km/hENE0.0km/h0uvi
17.09.2021 00:3018.3°C18.3°C18.3°C85.0%1013.0hPa0.0mm0.0km/hENE1.8km/h0uvi
17.09.2021 00:3518.3°C18.3°C18.3°C85.0%1012.4hPa0.0mm0.0km/hENE0.0km/h0uvi
17.09.2021 00:4018.2°C18.2°C18.2°C85.0%1012.0hPa0.0mm0.0km/hSSE0.0km/h0uvi
17.09.2021 00:4518.2°C18.2°C18.2°C85.0%1012.0hPa0.0mm0.0km/hSSE0.0km/h0uvi
17.09.2021 00:5018.2°C18.2°C18.2°C85.0%1012.0hPa0.0mm0.0km/hSSE0.0km/h0uvi
17.09.2021 00:5518.2°C18.2°C18.1°C85.0%1012.0hPa0.0mm0.0km/hSSE0.0km/h0uvi
17.09.2021 01:0018.1°C18.2°C18.1°C85.0%1012.0hPa0.0mm0.0km/hSSE0.0km/h0uvi
17.09.2021 01:0518.1°C18.1°C18.1°C85.0%1012.0hPa0.0mm0.0km/hSSE0.0km/h0uvi
17.09.2021 01:1018.1°C18.1°C18.1°C85.0%1012.0hPa0.0mm0.0km/hSSE0.0km/h0uvi
17.09.2021 01:1518.1°C18.1°C18.1°C85.0%1012.0hPa0.3mm0.0km/hSSE0.0km/h0uvi
17.09.2021 01:2018.1°C18.1°C18.1°C85.0%1012.0hPa0.0km/hSSE0.0km/h0uvi
17.09.2021 01:2518.1°C18.1°C18.1°C85.0%1012.0hPa0.0km/hENE0.0km/h0uvi
17.09.2021 01:3018.1°C18.1°C18.1°C86.0%1012.0hPa0.8mm1.1km/hNE2.5km/h0uvi
17.09.2021 01:3518.1°C18.1°C18.1°C87.0%1012.0hPa0.0km/hNE0.0km/h0uvi
17.09.2021 01:4018.1°C18.1°C18.1°C87.0%1012.0hPa0.0km/hNE1.4km/h0uvi
17.09.2021 01:4518.1°C18.1°C18.1°C87.0%1012.0hPa0.0km/hNE0.0km/h0uvi
17.09.2021 01:5018.1°C18.1°C18.0°C87.0%1012.0hPa0.0km/hNE0.0km/h0uvi
17.09.2021 01:5518.0°C18.0°C18.0°C87.0%1012.0hPa0.0km/hNE0.0km/h0uvi
17.09.2021 02:0018.0°C18.0°C18.0°C87.0%1012.0hPa1.3mm0.0km/hENE0.0km/h0uvi
17.09.2021 02:0518.0°C18.0°C18.0°C87.0%1012.0hPa0.0km/hENE0.0km/h0uvi
17.09.2021 02:1018.0°C18.0°C18.0°C87.0%1012.0hPa0.0km/hENE0.0km/h0uvi
17.09.2021 02:1517.9°C18.0°C17.9°C87.6%1012.0hPa0.0km/hENE0.0km/h0uvi
17.09.2021 02:2017.9°C17.9°C17.9°C88.0%1012.0hPa0.0km/hENE1.4km/h0uvi
17.09.2021 02:2517.8°C17.8°C17.8°C88.0%1012.0hPa0.2km/hENE4.0km/h0uvi
17.09.2021 02:3017.8°C17.8°C17.8°C88.0%1012.0hPa1.5mm0.0km/hENE0.0km/h0uvi
17.09.2021 02:3517.8°C17.8°C17.8°C88.0%1012.0hPa0.0km/hENE0.0km/h0uvi
17.09.2021 02:4017.8°C17.8°C17.8°C88.0%1012.0hPa0.0km/hENE0.0km/h0uvi
17.09.2021 02:4517.8°C17.8°C17.8°C88.0%1012.0hPa0.0km/hENE0.0km/h0uvi
17.09.2021 02:5017.8°C17.8°C17.7°C88.0%1012.0hPa0.0km/hENE0.0km/h0uvi
17.09.2021 02:5517.7°C17.7°C17.7°C88.0%1012.0hPa0.0km/hENE0.0km/h0uvi
17.09.2021 03:0017.7°C17.7°C17.7°C88.0%1012.0hPa1.1mm0.0km/hENE0.0km/h0uvi
17.09.2021 03:0517.6°C17.6°C17.6°C88.0%1012.0hPa0.0km/hENE0.0km/h0uvi
17.09.2021 03:1017.6°C17.6°C17.6°C88.0%1012.0hPa0.0km/hENE0.0km/h0uvi
17.09.2021 03:1517.6°C17.6°C17.6°C88.0%1012.0hPa0.0km/hENE0.0km/h0uvi
17.09.2021 03:2017.6°C17.6°C17.6°C88.0%1012.0hPa0.0km/hENE0.0km/h0uvi
17.09.2021 03:2517.6°C17.6°C17.6°C88.0%1012.0hPa0.0km/hENE0.0km/h0uvi
17.09.2021 03:3017.6°C17.6°C17.6°C88.0%1012.0hPa1.0mm0.0km/hENE0.0km/h0uvi
17.09.2021 03:3517.5°C17.5°C17.5°C88.0%1011.6hPa0.0km/hENE0.0km/h0uvi
17.09.2021 03:4017.5°C17.5°C17.4°C88.0%1011.0hPa0.0km/hWSW0.0km/h0uvi
17.09.2021 03:4517.4°C17.4°C17.3°C88.0%1011.0hPa1.1km/hWSW4.0km/h0uvi
17.09.2021 03:5017.3°C17.3°C17.2°C88.0%1011.0hPa0.8km/hWSW3.6km/h0uvi
17.09.2021 03:5517.1°C17.2°C17.1°C87.8%1011.0hPa2.0km/hWSW4.0km/h0uvi
17.09.2021 04:0017.1°C17.1°C17.1°C87.2%1011.0hPa0.6mm1.5km/hWSW5.0km/h0uvi
17.09.2021 04:0517.0°C17.0°C17.0°C88.0%1011.0hPa1.4km/hWSW4.0km/h0uvi
17.09.2021 04:1017.0°C17.0°C16.9°C87.8%1011.0hPa1.8km/hWSW4.0km/h0uvi
17.09.2021 04:1516.9°C16.9°C16.9°C88.0%1011.0hPa0.9km/hWSW3.2km/h0uvi
17.09.2021 04:2016.9°C16.9°C16.9°C88.0%1011.0hPa0.3mm2.5km/hSSW4.0km/h0uvi
17.09.2021 04:2516.9°C16.9°C16.9°C88.0%1011.0hPa1.9km/hWSW3.2km/h0uvi
17.09.2021 04:3016.9°C16.9°C16.8°C88.0%1011.0hPa0.0mm0.2km/hWSW1.8km/h0uvi
17.09.2021 04:3516.8°C16.8°C16.8°C88.0%1011.0hPa1.4km/hWSW4.0km/h0uvi
17.09.2021 04:4016.8°C16.8°C16.8°C88.0%1011.0hPa1.7km/hSSW4.0km/h0uvi
17.09.2021 04:4516.8°C16.8°C16.7°C88.0%1011.0hPa1.8km/hWNW4.0km/h0uvi
17.09.2021 04:5016.7°C16.8°C16.7°C88.0%1010.4hPa2.4km/hWSW4.0km/h0uvi
17.09.2021 04:5516.8°C16.8°C16.7°C88.0%1010.0hPa2.2km/hWSW5.0km/h0uvi
17.09.2021 05:0016.8°C16.8°C16.7°C88.0%1010.0hPa0.0mm2.2km/hWSW6.1km/h0uvi
17.09.2021 05:0516.7°C16.7°C16.7°C88.0%1010.0hPa2.1km/hWSW4.7km/h0uvi
17.09.2021 05:1016.7°C16.7°C16.7°C88.0%1010.0hPa2.4km/hWSW4.3km/h0uvi
17.09.2021 05:1516.7°C16.7°C16.7°C88.0%1010.0hPa2.2km/hWSW4.7km/h0uvi
17.09.2021 05:2016.7°C16.7°C16.7°C88.0%1010.0hPa3.0km/hWSW5.4km/h0uvi
17.09.2021 05:2516.6°C16.6°C16.6°C88.0%1010.0hPa2.1km/hWSW5.4km/h0uvi
17.09.2021 05:3016.6°C16.6°C16.6°C88.0%1010.0hPa0.0mm2.6km/hWSW4.7km/h0uvi
17.09.2021 05:3516.6°C16.7°C16.6°C88.0%1010.0hPa2.8km/hWSW4.0km/h0uvi
17.09.2021 05:4016.7°C16.7°C16.7°C88.0%1010.0hPa1.2km/hWSW4.7km/h0uvi
17.09.2021 05:4516.7°C16.7°C16.7°C88.0%1010.0hPa1.7km/hWSW4.3km/h0uvi
17.09.2021 05:5016.7°C16.7°C16.7°C88.0%1010.0hPa0.6km/hWSW1.8km/h0uvi
17.09.2021 05:5516.7°C16.7°C16.7°C88.0%1010.0hPa1.5km/hWSW4.3km/h0uvi
17.09.2021 06:0016.7°C16.7°C16.7°C88.0%1010.0hPa0.0mm2.6km/hSSW4.7km/h0uvi
17.09.2021 06:0516.7°C16.7°C16.7°C88.0%1010.0hPa0.7km/hSSW3.6km/h0uvi
17.09.2021 06:1016.7°C16.7°C16.7°C88.0%1010.0hPa0.1km/hSSW2.2km/h0uvi
17.09.2021 06:1516.7°C16.7°C16.7°C88.0%1010.0hPa0.3km/hSSW2.2km/h0uvi
17.09.2021 06:2016.7°C16.7°C16.7°C88.0%1010.0hPa0.0km/hSSW2.5km/h0uvi
17.09.2021 06:2516.7°C16.7°C16.7°C88.0%1010.0hPa0.6km/hSSW2.5km/h0uvi
17.09.2021 06:3016.7°C16.7°C16.7°C88.0%1010.0hPa0.0mm0.8km/hSSW2.2km/h0uvi
17.09.2021 06:3516.7°C16.7°C16.7°C88.0%1010.0hPa0.0km/hSSW0.0km/h0uvi
17.09.2021 06:4016.7°C16.7°C16.7°C88.0%1010.0hPa0.3km/hSSW2.2km/h0uvi
17.09.2021 06:4516.7°C16.7°C16.6°C88.0%1010.0hPa2.8km/hSSW4.3km/h0uvi
17.09.2021 06:5016.6°C16.6°C16.6°C88.0%1010.0hPa0.0km/hSSW0.0km/h0uvi
17.09.2021 06:5516.6°C16.6°C16.6°C88.0%1010.0hPa0.0mm0.6km/hSSW2.2km/h0uvi
17.09.2021 07:0016.6°C16.6°C16.6°C88.0%1010.0hPa0.0mm0.0km/hSSW0.0km/h0uvi
17.09.2021 07:0516.6°C16.6°C16.6°C88.0%1010.5hPa0.0mm0.0km/hSSW0.0km/h0uvi
17.09.2021 07:1016.6°C16.6°C16.6°C88.0%1011.0hPa0.0mm0.0km/hSSW2.2km/h0uvi
17.09.2021 07:1516.6°C16.6°C16.6°C88.0%1011.0hPa0.0mm0.0km/hSSW0.0km/h0uvi
17.09.2021 07:2016.6°C16.6°C16.6°C88.0%1011.0hPa0.0mm0.4km/hSSW2.5km/h0uvi
17.09.2021 07:2516.6°C16.6°C16.6°C88.0%1011.0hPa0.0mm0.0km/hSSW0.0km/h0uvi
17.09.2021 07:3016.6°C16.6°C16.6°C88.0%1011.0hPa0.0mm0.0km/hSSW0.0km/h0uvi
17.09.2021 07:3516.6°C16.6°C16.6°C88.0%1011.0hPa0.0mm0.0km/hSSW0.0km/h0uvi
17.09.2021 07:4016.6°C16.6°C16.6°C88.0%1011.0hPa0.0mm0.4km/hSSW2.5km/h0uvi
17.09.2021 07:4516.7°C16.7°C16.6°C88.0%1011.0hPa0.0mm0.1km/hSSW1.8km/h0uvi
17.09.2021 07:5016.7°C16.7°C16.7°C88.0%1011.0hPa0.0mm0.0km/hSSW1.8km/h0uvi
17.09.2021 07:5516.7°C16.7°C16.7°C88.0%1011.0hPa0.0mm1.2km/hSSW2.5km/h0uvi
17.09.2021 08:0016.8°C16.8°C16.7°C88.2%1011.0hPa0.0mm2.3km/hSSW3.2km/h0uvi
17.09.2021 08:0516.8°C16.8°C16.8°C88.8%1011.0hPa0.0mm0.4km/hSSW1.4km/h0uvi
17.09.2021 08:1016.9°C16.9°C16.8°C88.5%1011.0hPa0.0mm0.0km/hSSW2.5km/h0uvi
17.09.2021 08:1516.9°C16.9°C16.9°C88.8%1011.0hPa0.0mm0.3km/hSSW1.8km/h0uvi
17.09.2021 08:2017.0°C17.0°C16.9°C88.2%1011.0hPa0.0mm0.2km/hWSW2.2km/h0uvi
17.09.2021 08:2517.0°C17.0°C17.0°C88.0%1011.0hPa0.0mm0.0km/hWSW2.2km/h0uvi
17.09.2021 08:3017.1°C17.1°C17.1°C88.0%1011.0hPa0.0mm0.0km/hWSW1.4km/h0uvi
17.09.2021 08:3517.2°C17.2°C17.1°C88.0%1011.0hPa0.0mm0.0km/hWSW1.4km/h0uvi
17.09.2021 08:4017.3°C17.3°C17.2°C88.0%1011.0hPa0.0mm1.4km/hWSW3.6km/h0uvi
17.09.2021 08:4517.3°C17.3°C17.3°C88.0%1011.0hPa0.0mm0.9km/hSSW5.0km/h0uvi
17.09.2021 08:5017.4°C17.5°C17.4°C88.0%1011.0hPa0.0mm0.0km/hSSW2.2km/h0uvi
17.09.2021 08:5517.6°C17.6°C17.5°C88.0%1011.0hPa0.0mm0.7km/hSSW2.5km/h0uvi
17.09.2021 09:0017.7°C17.7°C17.6°C88.0%1011.0hPa0.0mm0.8km/hW4.0km/h0uvi
17.09.2021 09:0517.9°C18.1°C17.7°C87.0%1011.0hPa0.0mm0.5km/hWSW2.5km/h0uvi
17.09.2021 09:1018.1°C18.2°C18.1°C84.0%1011.0hPa0.0mm1.0km/hWSW4.0km/h0uvi
17.09.2021 09:1518.2°C18.3°C18.1°C82.8%1011.0hPa0.0mm1.8km/hWSW3.6km/h0uvi
17.09.2021 09:2018.5°C18.6°C18.4°C82.4%1011.0hPa0.0mm1.7km/hWSW5.4km/h1uvi
17.09.2021 09:2518.6°C18.7°C18.6°C81.0%1011.0hPa0.0mm1.1km/hWNW4.7km/h1uvi
17.09.2021 09:3018.7°C18.7°C18.7°C80.2%1011.0hPa0.0mm1.6km/hW3.2km/h1uvi
17.09.2021 09:3518.9°C19.0°C18.8°C80.2%1011.0hPa0.0mm1.4km/hWSW4.3km/h1uvi
17.09.2021 09:4019.1°C19.2°C18.9°C80.0%1011.0hPa0.0mm1.0km/hWSW4.7km/h1uvi
17.09.2021 09:4519.1°C19.2°C19.0°C79.2%1011.0hPa0.0mm2.2km/hWSW5.0km/h1uvi
17.09.2021 09:5019.2°C19.2°C19.1°C79.6%1011.0hPa0.0mm2.2km/hSSW4.7km/h0uvi
17.09.2021 09:5519.3°C19.4°C19.2°C78.5%1011.0hPa0.0mm1.6km/hWSW4.0km/h1uvi
17.09.2021 10:0019.3°C19.3°C19.2°C77.8%1011.0hPa0.0mm2.5km/hWSW5.8km/h0uvi
17.09.2021 10:0519.3°C19.3°C19.3°C78.0%1010.3hPa0.0mm1.5km/hSSW5.0km/h0uvi
17.09.2021 10:1019.3°C19.3°C19.3°C77.8%1010.0hPa0.0mm2.0km/hWSW4.3km/h1uvi
17.09.2021 10:1519.5°C19.5°C19.4°C77.3%1010.0hPa0.0mm1.7km/hWSW3.2km/h1uvi
17.09.2021 10:2019.7°C20.0°C19.5°C76.3%1010.7hPa0.0mm0.2km/hWSW2.5km/h2uvi
17.09.2021 10:2520.3°C20.4°C20.1°C73.0%1011.0hPa0.0mm1.9km/hWSW4.3km/h2uvi
17.09.2021 10:3020.6°C20.7°C20.4°C71.7%1011.0hPa0.0mm1.7km/hWSW5.0km/h2uvi
17.09.2021 10:3520.5°C20.5°C20.4°C69.0%1011.0hPa0.0mm0.3km/hSSW3.2km/h1uvi
17.09.2021 10:4020.8°C21.0°C20.6°C68.8%1011.0hPa0.0mm0.4km/hSE4.0km/h2uvi
17.09.2021 10:4520.7°C20.8°C20.7°C67.8%1011.0hPa0.0mm2.1km/hNE3.6km/h2uvi
17.09.2021 10:5020.6°C20.7°C20.5°C67.0%1011.0hPa0.0mm1.5km/hNW4.0km/h1uvi
17.09.2021 10:5520.4°C20.4°C20.4°C66.5%1011.0hPa0.0mm1.3km/hNW4.0km/h1uvi
17.09.2021 11:0020.4°C20.4°C20.3°C65.8%1011.0hPa0.0mm3.0km/hNE5.4km/h2uvi
17.09.2021 11:0520.5°C20.6°C20.4°C65.8%1011.0hPa0.0mm2.4km/hSSW5.0km/h1uvi
17.09.2021 11:1020.6°C20.7°C20.6°C65.8%1011.0hPa0.0mm2.4km/hSSW5.4km/h1uvi
17.09.2021 11:1520.7°C20.7°C20.6°C65.0%1011.0hPa0.0mm1.5km/hWSW4.0km/h1uvi
17.09.2021 11:2020.7°C20.7°C20.7°C64.0%1011.0hPa0.0mm1.0km/hWSW4.3km/h1uvi
17.09.2021 11:2520.7°C20.8°C20.7°C64.6%1011.0hPa0.0mm2.0km/hNW6.1km/h1uvi
17.09.2021 11:3021.0°C21.1°C20.9°C64.3%1011.0hPa0.0mm2.2km/hNW3.2km/h2uvi
17.09.2021 11:3521.0°C21.1°C21.0°C63.8%1011.0hPa0.0mm2.4km/hWSW4.3km/h2uvi
17.09.2021 11:4021.2°C21.4°C21.1°C64.0%1011.0hPa0.0mm1.1km/hWNW2.5km/h2uvi
17.09.2021 11:4521.4°C21.4°C21.4°C63.0%1011.0hPa0.0mm1.5km/hSSW4.7km/h1uvi
17.09.2021 11:5021.6°C21.7°C21.5°C62.0%1011.0hPa0.0mm0.5km/hSSE2.2km/h1uvi
17.09.2021 11:5521.6°C21.8°C21.5°C61.3%1011.0hPa0.0mm2.2km/hWSW4.7km/h3uvi
17.09.2021 12:0022.0°C22.2°C21.9°C60.0%1011.0hPa0.0mm2.9km/hSSW4.7km/h3uvi
17.09.2021 12:0522.1°C22.2°C21.9°C58.2%1011.0hPa0.0mm1.2km/hWSW5.0km/h1uvi
17.09.2021 12:1022.1°C22.2°C22.0°C58.8%1011.0hPa0.0mm3.2km/hWSW6.1km/h3uvi
17.09.2021 12:1522.2°C22.4°C22.0°C57.4%1011.0hPa0.0mm4.4km/hSSW6.1km/h3uvi
17.09.2021 12:2022.0°C22.1°C21.9°C57.2%1011.0hPa0.0mm4.0km/hSSW5.4km/h2uvi
17.09.2021 12:2522.3°C22.5°C22.0°C57.5%1011.0hPa0.0mm1.9km/hSSW3.6km/h3uvi
17.09.2021 12:3022.8°C22.9°C22.6°C57.2%1011.0hPa0.0mm1.0km/hS4.3km/h3uvi
17.09.2021 12:3522.7°C22.8°C22.5°C56.0%1010.3hPa0.0mm3.6km/hSSW5.4km/h4uvi
17.09.2021 12:4023.1°C23.4°C22.7°C56.0%1010.0hPa0.0mm1.6km/hW6.8km/h4uvi
17.09.2021 12:4523.7°C23.7°C23.7°C54.5%1010.0hPa0.0mm3.3km/hSSE5.4km/h4uvi
17.09.2021 12:5023.5°C23.7°C23.3°C53.0%1010.0hPa0.0mm2.7km/hENE6.5km/h4uvi
17.09.2021 12:5523.4°C23.5°C23.3°C53.5%1010.0hPa0.0mm3.5km/hNE6.8km/h4uvi
17.09.2021 13:0023.6°C23.8°C23.4°C53.2%1010.0hPa0.0mm3.7km/hNE7.2km/h4uvi
17.09.2021 13:0523.8°C23.9°C23.6°C53.3%1010.0hPa0.0mm3.5km/hNE7.6km/h4uvi
17.09.2021 13:1024.0°C24.2°C23.7°C53.4%1010.0hPa0.0mm3.1km/hENE7.9km/h4uvi
17.09.2021 13:1524.3°C24.4°C24.2°C52.8%1010.0hPa0.0mm2.4km/hESE6.1km/h4uvi
17.09.2021 13:2024.3°C24.3°C24.3°C52.2%1010.0hPa0.0mm3.6km/hSSE7.6km/h4uvi
17.09.2021 13:2524.3°C24.3°C24.3°C51.8%1010.0hPa0.0mm2.9km/hSSE6.8km/h3uvi
17.09.2021 13:3024.3°C24.4°C24.3°C51.0%1010.0hPa0.0mm1.5km/hSE4.3km/h3uvi
17.09.2021 13:3524.5°C24.5°C24.5°C51.3%1010.0hPa0.0mm2.2km/hNE6.5km/h3uvi
17.09.2021 13:4024.5°C24.6°C24.4°C50.8%1010.0hPa0.0mm3.3km/hNE5.4km/h3uvi
17.09.2021 13:4524.7°C24.7°C24.6°C50.6%1010.0hPa0.0mm2.1km/hNE4.7km/h3uvi
17.09.2021 13:5024.6°C24.7°C24.6°C50.3%1010.0hPa0.0mm3.6km/hNE5.8km/h3uvi
17.09.2021 13:5524.6°C24.6°C24.6°C50.5%1010.0hPa0.0mm2.5km/hWNW6.1km/h3uvi
17.09.2021 14:0024.9°C25.0°C24.7°C50.7%1010.0hPa0.0mm1.8km/hSSE5.0km/h3uvi
17.09.2021 14:0525.1°C25.3°C25.0°C49.7%1010.0hPa0.0mm2.1km/hSSE5.8km/h4uvi
17.09.2021 14:1025.2°C25.3°C25.0°C48.3%1010.0hPa0.0mm2.0km/hSSE6.1km/h1uvi
17.09.2021 14:1524.6°C24.9°C24.5°C49.0%1010.0hPa0.0mm1.4km/hNE6.5km/h1uvi
17.09.2021 14:2024.4°C24.5°C24.3°C48.2%1010.0hPa0.0mm3.1km/hENE6.5km/h1uvi
17.09.2021 14:2524.3°C24.3°C24.3°C48.8%1010.0hPa0.0mm2.8km/hSE5.8km/h1uvi
17.09.2021 14:3024.2°C24.3°C24.2°C50.0%1010.0hPa0.0mm2.9km/hNE5.0km/h1uvi
17.09.2021 14:3524.2°C24.3°C24.1°C49.8%1010.0hPa0.0mm1.0km/hENE2.2km/h1uvi
17.09.2021 14:4024.1°C24.1°C24.0°C49.5%1010.0hPa0.0mm2.9km/hNE5.8km/h1uvi
17.09.2021 14:4524.2°C24.5°C24.1°C50.2%1010.0hPa0.0mm2.2km/hENE5.4km/h1uvi
17.09.2021 14:5024.4°C24.5°C24.4°C50.2%1009.3hPa0.0mm1.7km/hENE5.8km/h1uvi
17.09.2021 14:5524.2°C24.3°C24.2°C50.0%1009.0hPa0.0mm3.7km/hNE9.0km/h1uvi
17.09.2021 15:0024.1°C24.2°C24.1°C51.2%1009.0hPa0.0mm2.1km/hNE4.0km/h1uvi
17.09.2021 15:0524.1°C24.2°C24.0°C52.2%1009.6hPa0.0mm2.7km/hNE4.0km/h3uvi
17.09.2021 15:1024.7°C24.9°C24.5°C53.2%1010.0hPa0.0mm1.5km/hNE5.4km/h3uvi
17.09.2021 15:1525.0°C25.1°C24.9°C51.8%1010.0hPa0.0mm3.3km/hESE6.1km/h3uvi
17.09.2021 15:2024.9°C25.0°C24.8°C51.2%1010.0hPa0.0mm5.1km/hNE9.0km/h3uvi
17.09.2021 15:2525.1°C25.2°C25.0°C50.5%1010.0hPa0.0mm3.5km/hNE7.9km/h3uvi
17.09.2021 15:3025.3°C25.5°C25.0°C49.6%1010.0hPa0.0mm2.1km/hNE5.0km/h3uvi
17.09.2021 15:3525.3°C25.5°C25.0°C48.3%1009.3hPa0.0mm2.8km/hSSE5.0km/h2uvi
17.09.2021 15:4025.0°C25.0°C24.9°C48.2%1009.0hPa0.0mm2.3km/hNE5.0km/h2uvi
17.09.2021 15:4525.2°C25.3°C25.0°C48.8%1009.0hPa0.0mm4.7km/hNE5.4km/h2uvi
17.09.2021 15:5025.5°C25.8°C25.3°C48.2%1008.4hPa0.0mm3.6km/hNE5.4km/h2uvi
17.09.2021 15:5525.7°C25.9°C25.5°C49.0%1008.0hPa0.0mm2.9km/hNE6.8km/h2uvi
17.09.2021 16:0025.9°C26.2°C25.7°C48.3%1008.0hPa0.0mm2.2km/hSSW5.4km/h2uvi
17.09.2021 16:0525.9°C26.1°C25.7°C48.4%1008.0hPa0.0mm3.1km/hSSE7.6km/h2uvi
17.09.2021 16:1026.3°C26.7°C26.0°C48.4%1008.0hPa0.0mm1.7km/hNE7.2km/h2uvi
17.09.2021 16:1525.8°C26.0°C25.6°C48.0%1008.0hPa0.0mm3.5km/hNE6.8km/h1uvi
17.09.2021 16:2025.7°C25.9°C25.6°C48.4%1008.0hPa0.0mm2.6km/hNE6.1km/h1uvi
17.09.2021 16:2525.5°C25.7°C25.4°C49.0%1008.0hPa0.0mm1.9km/hNE6.1km/h1uvi
17.09.2021 16:3025.3°C25.5°C25.1°C49.0%1008.0hPa0.0mm3.1km/hNE5.0km/h1uvi
17.09.2021 16:3525.1°C25.2°C24.9°C50.2%1008.0hPa0.0mm2.7km/hNE5.8km/h1uvi
17.09.2021 16:4024.9°C25.0°C24.9°C50.7%1008.0hPa0.0mm2.8km/hNE5.0km/h0uvi
17.09.2021 16:4524.7°C24.8°C24.6°C51.8%1008.0hPa0.0mm3.7km/hNE5.8km/h0uvi
17.09.2021 16:5024.5°C24.6°C24.4°C52.7%1008.0hPa0.0mm2.5km/hNE3.6km/h0uvi
17.09.2021 16:5524.6°C24.7°C24.5°C53.0%1008.0hPa0.0mm1.5km/hNE3.2km/h0uvi
17.09.2021 17:0024.4°C24.5°C24.4°C53.0%1008.0hPa0.0mm2.4km/hNE5.4km/h0uvi
17.09.2021 17:0524.3°C24.3°C24.3°C53.5%1008.0hPa0.0mm3.3km/hNE5.8km/h0uvi
17.09.2021 17:1024.1°C24.2°C24.1°C53.7%1008.0hPa0.0mm3.5km/hNE5.0km/h0uvi
17.09.2021 17:1524.1°C24.1°C24.1°C53.0%1008.0hPa0.0mm2.9km/hNE5.4km/h0uvi
17.09.2021 17:2024.0°C24.0°C24.0°C53.2%1008.0hPa0.0mm3.2km/hNE5.8km/h0uvi
17.09.2021 17:2523.9°C23.9°C23.8°C53.3%1008.0hPa0.0mm3.5km/hNE5.0km/h0uvi
17.09.2021 17:3023.8°C23.8°C23.8°C53.2%1008.0hPa0.0mm3.3km/hNE5.8km/h0uvi
17.09.2021 17:3523.7°C23.7°C23.7°C54.0%1008.0hPa0.0mm2.8km/hNE5.4km/h0uvi
17.09.2021 17:4023.6°C23.7°C23.6°C54.0%1008.0hPa0.0mm4.7km/hNE7.9km/h0uvi
17.09.2021 17:4523.5°C23.6°C23.5°C53.7%1008.0hPa0.0mm4.3km/hNE5.8km/h0uvi
17.09.2021 17:5023.6°C23.6°C23.5°C53.0%1008.6hPa0.0mm3.2km/hENE5.0km/h0uvi
17.09.2021 17:5523.5°C23.6°C23.5°C53.0%1009.0hPa0.0mm1.9km/hNE5.0km/h0uvi
17.09.2021 18:0023.5°C23.5°C23.5°C53.0%1009.0hPa0.0mm2.0km/hENE5.8km/h0uvi
17.09.2021 18:0523.4°C23.5°C23.4°C54.0%1009.0hPa0.0mm2.5km/hENE5.8km/h0uvi
17.09.2021 18:1023.4°C23.4°C23.4°C54.0%1009.0hPa0.0mm1.1km/hNE4.3km/h0uvi
17.09.2021 18:1523.3°C23.3°C23.2°C54.0%1009.0hPa0.0mm2.2km/hNE6.8km/h0uvi
17.09.2021 18:2023.2°C23.2°C23.1°C54.0%1009.0hPa0.0mm2.3km/hNE5.8km/h0uvi
17.09.2021 18:2523.1°C23.1°C23.1°C54.0%1009.0hPa0.0mm3.8km/hNE6.5km/h0uvi
17.09.2021 18:3023.0°C23.0°C23.0°C54.0%1009.0hPa0.0mm3.1km/hENE6.8km/h0uvi
17.09.2021 18:3522.9°C23.0°C22.9°C54.8%1009.0hPa0.0mm2.5km/hNE5.4km/h0uvi
17.09.2021 18:4022.8°C22.9°C22.8°C55.4%1009.0hPa0.0mm0.1km/hSE3.2km/h0uvi
17.09.2021 18:4522.7°C22.7°C22.7°C56.0%1009.0hPa0.0mm0.4km/hSE3.6km/h0uvi
17.09.2021 18:5022.6°C22.7°C22.6°C57.0%1009.6hPa0.0mm0.0km/hSE2.2km/h0uvi
17.09.2021 18:5522.5°C22.5°C22.5°C57.0%1010.0hPa0.0mm0.0km/hSE0.0km/h0uvi
17.09.2021 19:0022.4°C22.4°C22.3°C57.2%1010.0hPa0.0mm0.5km/hSE1.4km/h0uvi
17.09.2021 19:0522.3°C22.3°C22.3°C58.0%1010.0hPa0.0mm0.0km/hSE0.0km/h0uvi
17.09.2021 19:1022.2°C22.2°C22.2°C58.0%1010.0hPa0.0mm0.0km/hSE0.0km/h0uvi
17.09.2021 19:1522.1°C22.2°C22.1°C58.0%1010.0hPa0.0mm0.7km/hSE2.5km/h0uvi
17.09.2021 19:2022.0°C22.1°C22.0°C59.0%1010.0hPa1.0mm1.8km/hSE4.0km/h0uvi
17.09.2021 19:2521.9°C22.0°C21.8°C62.0%1010.0hPa1.0mm2.4km/hSE5.8km/h0uvi
17.09.2021 19:3021.6°C21.7°C21.5°C65.0%1010.0hPa0.0mm2.8km/hSE5.4km/h0uvi
17.09.2021 19:3521.3°C21.4°C21.2°C69.0%1010.0hPa0.0mm4.2km/hSSW5.0km/h0uvi
17.09.2021 19:4021.0°C21.1°C20.9°C69.0%1010.0hPa0.0mm1.7km/hSSW2.5km/h0uvi
17.09.2021 19:4520.8°C20.9°C20.7°C69.0%1010.0hPa0.0mm1.2km/hSSW3.2km/h0uvi
17.09.2021 19:5020.6°C20.7°C20.5°C71.2%1010.0hPa0.0mm1.8km/hSSW4.7km/h0uvi
17.09.2021 19:5520.4°C20.5°C20.3°C72.7%1010.0hPa0.0mm3.0km/hSSE5.8km/h0uvi
17.09.2021 20:0020.3°C20.3°C20.2°C74.0%1010.0hPa0.0mm2.7km/hSSW4.7km/h0uvi
17.09.2021 20:0520.1°C20.1°C20.1°C75.5%1009.4hPa0.0mm2.3km/hSSW5.8km/h0uvi
17.09.2021 20:1020.0°C20.1°C20.0°C77.0%1009.0hPa0.0mm3.5km/hSSW5.0km/h0uvi
17.09.2021 20:1519.9°C19.9°C19.8°C77.7%1009.0hPa0.0mm2.3km/hSSE4.3km/h0uvi
17.09.2021 20:2019.7°C19.7°C19.7°C77.0%1009.5hPa0.0mm1.9km/hSSW6.1km/h0uvi
17.09.2021 20:2519.7°C19.8°C19.7°C77.2%1010.0hPa0.0mm3.8km/hSSW5.0km/h0uvi
17.09.2021 20:3019.7°C19.7°C19.7°C77.0%1010.0hPa0.0mm2.2km/hSSW4.3km/h0uvi
17.09.2021 20:3519.7°C19.7°C19.7°C76.2%1010.0hPa0.0mm0.8km/hSSW3.2km/h0uvi
17.09.2021 20:4019.6°C19.6°C19.6°C76.8%1010.0hPa0.0mm0.9km/hESE4.3km/h0uvi
17.09.2021 20:4519.5°C19.5°C19.4°C76.4%1010.0hPa0.0mm3.5km/hSSW8.6km/h0uvi
17.09.2021 20:5019.4°C19.4°C19.4°C76.7%1010.7hPa0.0mm4.5km/hSSW6.8km/h0uvi
17.09.2021 20:5519.4°C19.4°C19.4°C76.0%1011.0hPa0.0mm3.6km/hSSW5.4km/h0uvi
17.09.2021 21:0019.4°C19.4°C19.3°C75.2%1011.0hPa0.0mm4.0km/hS6.1km/h0uvi
17.09.2021 21:0519.3°C19.3°C19.3°C75.0%1011.0hPa0.0mm1.6km/hS4.7km/h0uvi
17.09.2021 21:1019.2°C19.2°C19.2°C75.0%1011.0hPa0.0mm1.3km/hSSW4.0km/h0uvi
17.09.2021 21:1519.2°C19.2°C19.2°C75.0%1011.0hPa0.0mm2.4km/hSSE5.0km/h0uvi
17.09.2021 21:2019.2°C19.2°C19.1°C75.0%1011.0hPa0.0mm0.1km/hSSW2.2km/h0uvi
17.09.2021 21:2519.1°C19.1°C19.1°C75.0%1011.0hPa0.0mm0.8km/hSSW4.3km/h0uvi
17.09.2021 21:3019.1°C19.1°C19.1°C75.3%1011.0hPa0.0mm3.3km/hSSW5.0km/h0uvi
17.09.2021 21:3519.0°C19.0°C19.0°C76.0%1011.0hPa0.0mm3.0km/hS5.0km/h0uvi
17.09.2021 21:4019.0°C19.0°C19.0°C76.0%1011.0hPa0.0mm4.0km/hSSW5.4km/h0uvi
17.09.2021 21:4519.0°C19.0°C19.0°C76.0%1011.0hPa0.0mm2.9km/hS6.1km/h0uvi
17.09.2021 21:5019.0°C19.0°C19.0°C76.0%1011.0hPa0.0mm3.7km/hSE5.4km/h0uvi
17.09.2021 21:5519.0°C19.0°C19.0°C75.8%1011.0hPa0.0mm2.3km/hSE5.8km/h0uvi
17.09.2021 22:0019.0°C19.0°C19.0°C75.7%1011.0hPa0.0mm3.6km/hSSW4.3km/h0uvi
17.09.2021 22:0519.0°C19.0°C19.0°C75.0%1011.6hPa0.0mm2.7km/hSE5.0km/h0uvi
17.09.2021 22:1018.9°C18.9°C18.9°C76.0%1012.0hPa0.0mm2.0km/hSSW4.0km/h0uvi
17.09.2021 22:1518.9°C18.9°C18.9°C76.0%1012.0hPa0.0mm3.4km/hSSW6.8km/h0uvi
17.09.2021 22:2018.8°C18.9°C18.8°C76.0%1012.0hPa0.0mm5.0km/hSSW6.5km/h0uvi
17.09.2021 22:2518.8°C18.8°C18.8°C75.2%1012.0hPa0.0mm6.0km/hSSW6.8km/h0uvi
17.09.2021 22:3018.8°C18.8°C18.8°C75.0%1012.0hPa0.0mm4.9km/hSSW6.5km/h0uvi
17.09.2021 22:3518.7°C18.8°C18.7°C75.0%1012.0hPa0.0mm2.4km/hSSW7.6km/h0uvi
17.09.2021 22:4018.7°C18.7°C18.7°C75.0%1012.0hPa0.0mm4.4km/hSSW5.0km/h0uvi
17.09.2021 22:4518.6°C18.6°C18.6°C75.0%1012.0hPa0.0mm2.7km/hSSE4.7km/h0uvi
17.09.2021 22:5018.5°C18.5°C18.5°C75.0%1012.0hPa0.0mm3.7km/hSSW5.8km/h0uvi
17.09.2021 22:5518.5°C18.5°C18.5°C75.0%1012.0hPa0.0mm4.2km/hSSW7.6km/h0uvi
17.09.2021 23:0018.5°C18.5°C18.5°C75.0%1012.0hPa0.0mm3.3km/hSSW5.8km/h0uvi
17.09.2021 23:0518.5°C18.5°C18.4°C75.8%1012.0hPa0.0mm1.9km/hSSW4.0km/h0uvi
17.09.2021 23:1018.4°C18.4°C18.4°C76.0%1012.0hPa0.0mm0.0km/hSSW1.8km/h0uvi
17.09.2021 23:1518.4°C18.4°C18.4°C76.2%1012.0hPa0.0mm1.1km/hSSW3.6km/h0uvi
17.09.2021 23:2018.4°C18.4°C18.4°C77.0%1012.0hPa0.0mm3.0km/hSSW5.0km/h0uvi
17.09.2021 23:2518.4°C18.4°C18.4°C76.6%1012.0hPa0.0mm3.8km/hSSW5.4km/h0uvi
17.09.2021 23:3018.4°C18.4°C18.4°C76.0%1012.0hPa0.0mm3.9km/hSSW6.1km/h0uvi
17.09.2021 23:3518.4°C18.4°C18.4°C75.5%1012.0hPa0.0mm2.6km/hSSW5.0km/h0uvi
17.09.2021 23:4018.4°C18.4°C18.4°C75.0%1012.0hPa0.0mm2.4km/hSSW4.3km/h0uvi
17.09.2021 23:4518.4°C18.4°C18.4°C75.0%1012.0hPa0.0mm2.1km/hS4.3km/h0uvi
17.09.2021 23:5018.4°C18.4°C18.4°C75.0%1012.0hPa0.0mm2.0km/hS4.3km/h0uvi
17.09.2021 23:5518.4°C18.4°C18.4°C75.0%1012.0hPa0.0mm3.0km/hSSW4.7km/h0uvi
18.09.2021 00:0018.4°C18.4°C18.4°C75.0%1012.0hPa0.0mm4.2km/hSSW6.8km/h0uvi
18.09.2021 00:0518.4°C18.4°C18.4°C75.0%1012.0hPa0.0mm3.6km/hSSW5.0km/h0uvi
18.09.2021 00:1018.4°C18.4°C18.4°C74.2%1012.0hPa0.0mm3.5km/hSSW5.4km/h0uvi
18.09.2021 00:1518.3°C18.4°C18.3°C74.0%1012.0hPa0.0mm1.7km/hSSW3.6km/h0uvi
18.09.2021 00:2018.3°C18.3°C18.2°C74.0%1012.0hPa0.0mm1.3km/hSSE4.7km/h0uvi
18.09.2021 00:2518.2°C18.2°C18.1°C74.5%1012.0hPa0.0mm2.7km/hSSW5.4km/h0uvi
18.09.2021 00:3018.1°C18.1°C18.0°C75.0%1012.0hPa0.0mm3.4km/hSSE5.8km/h0uvi
18.09.2021 00:3518.0°C18.0°C18.0°C75.0%1012.0hPa0.0mm2.6km/hSSW6.5km/h0uvi
18.09.2021 00:4018.0°C18.0°C18.0°C75.0%1012.0hPa0.0mm3.1km/hSSW7.6km/h0uvi
18.09.2021 00:4518.0°C18.0°C18.0°C75.0%1012.0hPa0.0mm4.0km/hSSW5.8km/h0uvi
18.09.2021 00:5017.9°C18.0°C17.9°C75.0%1012.0hPa0.0mm4.0km/hSSW5.4km/h0uvi
18.09.2021 00:5517.9°C17.9°C17.9°C75.2%1012.0hPa0.0mm2.4km/hSSW4.0km/h0uvi
18.09.2021 01:0017.9°C17.9°C17.9°C76.0%1012.0hPa0.0mm2.1km/hSSW4.7km/h0uvi
18.09.2021 01:0517.8°C17.9°C17.8°C76.0%1012.0hPa0.0mm0.5km/hSSW1.8km/h0uvi
18.09.2021 01:1017.8°C17.8°C17.7°C76.5%1012.0hPa0.0mm0.0km/hSSW1.8km/h0uvi
18.09.2021 01:1517.6°C17.7°C17.6°C77.0%1012.0hPa0.0mm1.0km/hSSW3.6km/h0uvi
18.09.2021 01:2017.6°C17.6°C17.6°C77.0%1012.0hPa2.2km/hSSW0.0km/h0uvi